LNI878 WAPP-WASS

Flight info

Callsign LNI878
Flight time 0h 56m
Altitude 33000
Route PUGUV DCT OPIMA DCT IDVOR DCT GOVSI DCT VIDIS DCT KAKPI DCT FALAM DCT 02S130E/N0464F320 DCT 01S130E DCT D268Y DCT WMLIN DCT SS401 DCT SS402 DCT SS604
Aircraft B739/M-SDE2E3FGHIRWXY/LB1

Departure

Time 2026-04-13 19:11
Airport Pattimura International Airport (WAPP)

Arrival

Time 2026-04-13 20:07
Airport Domine Eduard Osok Airport (WASS)
Time Latitude Longitude Altitude Speed Heading
2026-04-13 18:50 -3.70633 128.08857 35 ft 0 kts 359°
2026-04-13 19:01 -3.70634 128.08857 35 ft 2 kts 359°
2026-04-13 19:01 -3.70659 128.08856 35 ft 4 kts 13°
2026-04-13 19:01 -3.70684 128.08846 35 ft 4 kts 41°
2026-04-13 19:02 -3.70696 128.08827 35 ft 2 kts 88°
2026-04-13 19:02 -3.70696 128.08825 35 ft 2 kts 89°
2026-04-13 19:05 -3.70696 128.08826 35 ft 0 kts 89°
2026-04-13 19:06 -3.70696 128.08846 35 ft 5 kts 89°
2026-04-13 19:06 -3.70695 128.08884 35 ft 6 kts 89°
2026-04-13 19:06 -3.70695 128.08930 35 ft 7 kts 89°
2026-04-13 19:06 -3.70694 128.08981 35 ft 8 kts 90°
2026-04-13 19:07 -3.70695 128.09038 35 ft 9 kts 94°
2026-04-13 19:07 -3.70721 128.09092 34 ft 9 kts 136°
2026-04-13 19:07 -3.70771 128.09141 34 ft 11 kts 137°
2026-04-13 19:07 -3.70787 128.09204 35 ft 11 kts 53°
2026-04-13 19:08 -3.70737 128.09256 34 ft 10 kts 45°
2026-04-13 19:08 -3.70685 128.09308 35 ft 11 kts 45°
2026-04-13 19:08 -3.70628 128.09365 35 ft 12 kts 45°
2026-04-13 19:08 -3.70566 128.09426 35 ft 13 kts 45°
2026-04-13 19:09 -3.70503 128.09489 34 ft 13 kts 45°
2026-04-13 19:09 -3.70439 128.09553 34 ft 14 kts 45°
2026-04-13 19:09 -3.70368 128.09624 33 ft 15 kts 44°
2026-04-13 19:09 -3.70289 128.09692 33 ft 15 kts 20°
2026-04-13 19:10 -3.70231 128.09735 33 ft 10 kts 107°
2026-04-13 19:10 -3.70274 128.09720 31 ft 8 kts 229°
2026-04-13 19:10 -3.70296 128.09697 33 ft 0 kts 225°
2026-04-13 19:10 -3.70296 128.09696 33 ft 2 kts 225°
2026-04-13 19:11 -3.70461 128.09531 34 ft 68 kts 225°
2026-04-13 19:11 -3.70956 128.09038 34 ft 131 kts 225°
2026-04-13 19:11 -3.71723 128.08271 51 ft 177 kts 224°
2026-04-13 19:11 -3.72592 128.07406 715 ft 174 kts 227°
2026-04-13 19:12 -3.73466 128.06517 1318 ft 179 kts 227°
2026-04-13 19:12 -3.74348 128.05632 1962 ft 182 kts 226°
2026-04-13 19:12 -3.75301 128.04668 2239 ft 208 kts 226°
2026-04-13 19:12 -3.76586 128.03881 2436 ft 232 kts 193°
2026-04-13 19:13 -3.78236 128.03931 2901 ft 244 kts 167°
2026-04-13 19:13 -3.79781 128.04758 3250 ft 264 kts 140°
2026-04-13 19:13 -3.81116 128.06059 3959 ft 269 kts 136°
2026-04-13 19:13 -3.82419 128.07382 4885 ft 266 kts 135°
2026-04-13 19:14 -3.83726 128.08717 5617 ft 272 kts 135°
2026-04-13 19:14 -3.85064 128.10081 6305 ft 277 kts 135°
2026-04-13 19:14 -3.86431 128.11467 7034 ft 281 kts 136°
2026-04-13 19:14 -3.87817 128.12867 7715 ft 286 kts 136°
2026-04-13 19:15 -3.89228 128.14291 8394 ft 290 kts 136°
2026-04-13 19:15 -3.90663 128.15736 9061 ft 294 kts 136°
2026-04-13 19:15 -3.92115 128.17197 9696 ft 299 kts 136°
2026-04-13 19:15 -3.93589 128.18696 10262 ft 307 kts 133°
2026-04-13 19:16 -3.94670 128.20618 10384 ft 333 kts 104°
2026-04-13 19:16 -3.94730 128.22985 10547 ft 353 kts 76°
2026-04-13 19:16 -3.93656 128.25227 10784 ft 366 kts 50°
2026-04-13 19:16 -3.91946 128.27145 11280 ft 371 kts 46°
2026-04-13 19:17 -3.90219 128.29088 11866 ft 375 kts 48°
2026-04-13 19:17 -3.88528 128.31091 12450 ft 378 kts 47°
2026-04-13 19:17 -3.86560 128.32823 12977 ft 378 kts 26°
2026-04-13 19:17 -3.84112 128.33693 13580 ft 373 kts
2026-04-13 19:18 -3.81543 128.33674 14123 ft 370 kts 346°
2026-04-13 19:18 -3.79119 128.32859 14639 ft 368 kts 329°
2026-04-13 19:18 -3.77042 128.31380 15120 ft 368 kts 318°
2026-04-13 19:18 -3.75076 128.29718 15627 ft 371 kts 317°
2026-04-13 19:19 -3.73118 128.28017 16115 ft 374 kts 317°
2026-04-13 19:19 -3.71140 128.26299 16581 ft 378 kts 317°
2026-04-13 19:19 -3.69145 128.24577 17044 ft 380 kts 317°
2026-04-13 19:19 -3.67154 128.22871 17527 ft 383 kts 317°
2026-04-13 19:20 -3.65116 128.21132 17967 ft 386 kts 318°
2026-04-13 19:20 -3.63061 128.19385 18405 ft 389 kts 318°
2026-04-13 19:20 -3.60961 128.17605 18829 ft 392 kts 318°
2026-04-13 19:20 -3.58898 128.15857 19227 ft 395 kts 318°
2026-04-13 19:21 -3.56767 128.14051 19628 ft 398 kts 318°
2026-04-13 19:21 -3.54646 128.12255 20011 ft 401 kts 318°
2026-04-13 19:21 -3.52511 128.10447 20381 ft 403 kts 318°
2026-04-13 19:21 -3.50394 128.08652 20749 ft 406 kts 318°
2026-04-13 19:22 -3.48231 128.06819 21100 ft 408 kts 318°
2026-04-13 19:22 -3.46053 128.04975 21417 ft 411 kts 318°
2026-04-13 19:22 -3.43864 128.03121 21768 ft 414 kts 318°
2026-04-13 19:22 -3.41662 128.01257 22078 ft 416 kts 318°
2026-04-13 19:23 -3.39443 127.99379 22388 ft 419 kts 318°
2026-04-13 19:23 -3.37211 127.97490 22698 ft 421 kts 318°
2026-04-13 19:23 -3.34973 127.95595 22993 ft 423 kts 318°
2026-04-13 19:23 -3.32723 127.93691 23304 ft 425 kts 318°
2026-04-13 19:24 -3.30421 127.91824 23573 ft 428 kts 325°
2026-04-13 19:24 -3.27684 127.90617 23771 ft 436 kts 346°
2026-04-13 19:24 -3.24652 127.90361 24059 ft 441 kts
2026-04-13 19:24 -3.21656 127.91035 24313 ft 446 kts 21°
2026-04-13 19:25 -3.18952 127.92575 24544 ft 451 kts 39°
2026-04-13 19:25 -3.16798 127.94858 24788 ft 453 kts 51°
2026-04-13 19:25 -3.14855 127.97344 25053 ft 455 kts 52°
2026-04-13 19:25 -3.12931 127.99867 25263 ft 457 kts 52°
2026-04-13 19:26 -3.11000 128.02402 25489 ft 459 kts 52°
2026-04-13 19:26 -3.09047 128.04945 25684 ft 462 kts 52°
2026-04-13 19:26 -3.07074 128.07490 25924 ft 463 kts 51°
2026-04-13 19:26 -3.05088 128.10034 26162 ft 464 kts 51°
2026-04-13 19:27 -3.03094 128.12577 26390 ft 465 kts 51°
2026-04-13 19:27 -3.01087 128.15130 26608 ft 467 kts 51°
2026-04-13 19:27 -2.99103 128.17652 26806 ft 468 kts 51°
2026-04-13 19:27 -2.97058 128.20252 27011 ft 470 kts 51°
2026-04-13 19:28 -2.95035 128.22823 27232 ft 471 kts 51°
2026-04-13 19:28 -2.93032 128.25371 27442 ft 472 kts 51°
2026-04-13 19:28 -2.91000 128.27957 27650 ft 474 kts 51°
2026-04-13 19:28 -2.88961 128.30552 27845 ft 475 kts 51°
2026-04-13 19:29 -2.86912 128.33160 28019 ft 477 kts 51°
2026-04-13 19:29 -2.84855 128.35777 28203 ft 478 kts 51°
2026-04-13 19:29 -2.82800 128.38391 28379 ft 480 kts 51°
2026-04-13 19:29 -2.80732 128.41021 28556 ft 481 kts 51°
2026-04-13 19:30 -2.78661 128.43656 28741 ft 482 kts 51°
2026-04-13 19:30 -2.76587 128.46294 28920 ft 483 kts 51°
2026-04-13 19:30 -2.74504 128.48943 29064 ft 485 kts 51°
2026-04-13 19:30 -2.72518 128.51678 29194 ft 488 kts 60°
2026-04-13 19:31 -2.71292 128.54837 29339 ft 489 kts 76°
2026-04-13 19:31 -2.70502 128.58138 29567 ft 488 kts 76°
2026-04-13 19:31 -2.69696 128.61445 29728 ft 490 kts 76°
2026-04-13 19:31 -2.68868 128.64754 29864 ft 492 kts 76°
2026-04-13 19:32 -2.68019 128.68076 30029 ft 493 kts 75°
2026-04-13 19:32 -2.67158 128.71391 30265 ft 492 kts 75°
2026-04-13 19:32 -2.66294 128.74692 30543 ft 491 kts 75°
2026-04-13 19:32 -2.65429 128.77990 30860 ft 488 kts 75°
2026-04-13 19:33 -2.64569 128.81269 31133 ft 487 kts 75°
2026-04-13 19:33 -2.63720 128.84503 31373 ft 487 kts 75°
2026-04-13 19:33 -2.62863 128.87774 31642 ft 486 kts 75°
2026-04-13 19:34 -2.61157 128.94292 32225 ft 483 kts 76°
2026-04-13 19:34 -2.60308 128.97535 32521 ft 482 kts 76°
2026-04-13 19:34 -2.59459 129.00779 32782 ft 481 kts 76°
2026-04-13 19:34 -2.58613 129.04013 32970 ft 481 kts 76°
2026-04-13 19:35 -2.57767 129.07245 32946 ft 479 kts 76°
2026-04-13 19:35 -2.56082 129.13681 32961 ft 479 kts 76°
2026-04-13 19:36 -2.54389 129.20148 32975 ft 482 kts 76°
2026-04-13 19:36 -2.52687 129.26644 32968 ft 484 kts 76°
2026-04-13 19:37 -2.50980 129.33159 32962 ft 485 kts 76°
2026-04-13 19:37 -2.49262 129.39686 32962 ft 485 kts 73°
2026-04-13 19:37 -2.47938 129.42783 32943 ft 484 kts 56°
2026-04-13 19:38 -2.45889 129.45439 32977 ft 483 kts 50°
2026-04-13 19:38 -2.41510 129.50539 32957 ft 483 kts 49°
2026-04-13 19:39 -2.37144 129.55634 32951 ft 482 kts 49°
2026-04-13 19:39 -2.32856 129.60727 32951 ft 481 kts 50°
2026-04-13 19:40 -2.28564 129.65860 32950 ft 481 kts 50°
2026-04-13 19:40 -2.24279 129.70987 32953 ft 480 kts 50°
2026-04-13 19:41 -2.19993 129.76111 32957 ft 480 kts 50°
2026-04-13 19:41 -2.15709 129.81230 32951 ft 481 kts 50°
2026-04-13 19:42 -2.09967 129.88090 32954 ft 481 kts 50°
2026-04-13 19:42 -2.05670 129.93225 32955 ft 482 kts 50°
2026-04-13 19:43 -2.01400 129.98326 32955 ft 482 kts 50°
2026-04-13 19:43 -1.96614 130.02997 32957 ft 481 kts 38°
2026-04-13 19:44 -1.91375 130.07177 32943 ft 482 kts 38°
2026-04-13 19:44 -1.86180 130.11413 32940 ft 483 kts 39°
2026-04-13 19:45 -1.81104 130.15810 32922 ft 484 kts 50°
2026-04-13 19:45 -1.79278 130.18621 32956 ft 482 kts 63°
2026-04-13 19:45 -1.77740 130.21592 32887 ft 482 kts 63°
2026-04-13 19:46 -1.76197 130.24567 32417 ft 481 kts 63°
2026-04-13 19:46 -1.74649 130.27515 31916 ft 476 kts 62°
2026-04-13 19:46 -1.73104 130.30423 31396 ft 472 kts 62°
2026-04-13 19:46 -1.71559 130.33306 30878 ft 468 kts 62°
2026-04-13 19:47 -1.70022 130.36159 30363 ft 464 kts 62°
2026-04-13 19:47 -1.68498 130.38982 29849 ft 461 kts 62°
2026-04-13 19:47 -1.66981 130.41793 29342 ft 457 kts 62°
2026-04-13 19:47 -1.65479 130.44573 28825 ft 453 kts 62°
2026-04-13 19:48 -1.63986 130.47339 28317 ft 450 kts 62°
2026-04-13 19:48 -1.62506 130.50081 27812 ft 447 kts 62°
2026-04-13 19:48 -1.61036 130.52805 27313 ft 444 kts 62°
2026-04-13 19:48 -1.59576 130.55511 26810 ft 440 kts 62°
2026-04-13 19:49 -1.58131 130.58192 26311 ft 437 kts 62°
2026-04-13 19:49 -1.56694 130.60859 25818 ft 434 kts 62°
2026-04-13 19:49 -1.55268 130.63501 25328 ft 431 kts 62°
2026-04-13 19:49 -1.53851 130.66126 24847 ft 428 kts 62°
2026-04-13 19:50 -1.52441 130.68739 24364 ft 425 kts 62°
2026-04-13 19:50 -1.51060 130.71299 23889 ft 422 kts 62°
2026-04-13 19:50 -1.49672 130.73873 23411 ft 420 kts 62°
2026-04-13 19:50 -1.48293 130.76430 22936 ft 417 kts 62°
2026-04-13 19:51 -1.46920 130.78974 22462 ft 414 kts 62°
2026-04-13 19:51 -1.45556 130.81502 21997 ft 412 kts 62°
2026-04-13 19:51 -1.44203 130.84011 21535 ft 409 kts 62°
2026-04-13 19:51 -1.42857 130.86512 21069 ft 407 kts 62°
2026-04-13 19:52 -1.41523 130.88991 20613 ft 405 kts 62°
2026-04-13 19:52 -1.40191 130.91464 20154 ft 402 kts 61°
2026-04-13 19:52 -1.38870 130.93918 19701 ft 400 kts 61°
2026-04-13 19:52 -1.37554 130.96362 19247 ft 399 kts 61°
2026-04-13 19:53 -1.36243 130.98798 18789 ft 397 kts 61°
2026-04-13 19:53 -1.34941 131.01216 18339 ft 394 kts 61°
2026-04-13 19:53 -1.33644 131.03623 17888 ft 393 kts 61°
2026-04-13 19:53 -1.32360 131.06022 17444 ft 391 kts 61°
2026-04-13 19:54 -1.31079 131.08408 16995 ft 389 kts 60°
2026-04-13 19:54 -1.29798 131.10779 16548 ft 386 kts 60°
2026-04-13 19:54 -1.28525 131.13135 16106 ft 384 kts 60°
2026-04-13 19:54 -1.27260 131.15478 15659 ft 382 kts 60°
2026-04-13 19:55 -1.25999 131.17813 15222 ft 381 kts 60°
2026-04-13 19:55 -1.24746 131.20134 14786 ft 379 kts 60°
2026-04-13 19:55 -1.23497 131.22448 14340 ft 377 kts 60°
2026-04-13 19:55 -1.22255 131.24749 13910 ft 375 kts 60°
2026-04-13 19:56 -1.21019 131.27039 13476 ft 373 kts 60°
2026-04-13 19:56 -1.19792 131.29315 13046 ft 371 kts 60°
2026-04-13 19:56 -1.18570 131.31578 12615 ft 369 kts 60°
2026-04-13 19:56 -1.17357 131.33826 12224 ft 366 kts 59°
2026-04-13 19:57 -1.16153 131.36059 11818 ft 364 kts 59°
2026-04-13 19:57 -1.14954 131.38284 11331 ft 364 kts 60°
2026-04-13 19:57 -1.13754 131.40512 10842 ft 364 kts 60°
2026-04-13 19:57 -1.12556 131.42739 10353 ft 364 kts 60°
2026-04-13 19:58 -1.11368 131.44946 9842 ft 356 kts 60°
2026-04-13 19:58 -1.10207 131.47101 9363 ft 349 kts 60°
2026-04-13 19:58 -1.09070 131.49213 8888 ft 341 kts 60°
2026-04-13 19:58 -1.07956 131.51281 8442 ft 334 kts 61°
2026-04-13 19:59 -1.06866 131.53305 8000 ft 327 kts 60°
2026-04-13 19:59 -1.05515 131.55081 7542 ft 318 kts 36°
2026-04-13 19:59 -1.03648 131.56090 7196 ft 297 kts 13°
2026-04-13 19:59 -1.01666 131.56388 6732 ft 280 kts 355°
2026-04-13 20:00 -0.99807 131.56118 6410 ft 262 kts 340°
2026-04-13 20:00 -0.98135 131.55629 6320 ft 246 kts 338°
2026-04-13 20:00 -0.96558 131.55144 6181 ft 228 kts 338°
2026-04-13 20:00 -0.95100 131.54701 6065 ft 210 kts 337°
2026-04-13 20:01 -0.93762 131.54298 5901 ft 194 kts 337°
2026-04-13 20:01 -0.92479 131.53911 5468 ft 193 kts 337°
2026-04-13 20:01 -0.91193 131.53526 5045 ft 192 kts 337°
2026-04-13 20:01 -0.89964 131.53080 4610 ft 184 kts 321°
2026-04-13 20:02 -0.89204 131.52134 4114 ft 174 kts 284°
2026-04-13 20:02 -0.89161 131.50976 3848 ft 163 kts 253°
2026-04-13 20:02 -0.89501 131.49841 3815 ft 177 kts 254°
2026-04-13 20:02 -0.89848 131.48640 3540 ft 181 kts 254°
2026-04-13 20:03 -0.90065 131.47428 3297 ft 176 kts 270°
2026-04-13 20:03 -0.90053 131.46228 3083 ft 171 kts 269°
2026-04-13 20:03 -0.90058 131.45048 2872 ft 170 kts 269°
2026-04-13 20:03 -0.90060 131.43883 2662 ft 164 kts 269°
2026-04-13 20:04 -0.90074 131.42795 2494 ft 154 kts 269°
2026-04-13 20:04 -0.90087 131.41715 2258 ft 154 kts 269°
2026-04-13 20:04 -0.90100 131.40651 2057 ft 154 kts 269°
2026-04-13 20:04 -0.90107 131.39589 1944 ft 153 kts 271°
2026-04-13 20:05 -0.90048 131.38533 1871 ft 153 kts 274°
2026-04-13 20:05 -0.89975 131.37462 1590 ft 156 kts 273°
2026-04-13 20:05 -0.89912 131.36373 1315 ft 157 kts 273°
2026-04-13 20:05 -0.89843 131.35288 1049 ft 156 kts 274°
2026-04-13 20:06 -0.89774 131.34212 835 ft 154 kts 273°
2026-04-13 20:06 -0.89704 131.33148 642 ft 152 kts 274°
2026-04-13 20:06 -0.89626 131.32094 447 ft 152 kts 274°
2026-04-13 20:06 -0.89553 131.31040 257 ft 152 kts 273°
2026-04-13 20:07 -0.89487 131.29982 69 ft 152 kts 274°
2026-04-13 20:07 -0.89417 131.28992 23 ft 128 kts 274°
2026-04-13 20:07 -0.89369 131.28266 26 ft 69 kts 274°
2026-04-13 20:07 -0.89351 131.27985 26 ft 23 kts 273°
2026-04-13 20:08 -0.89342 131.27865 29 ft 12 kts 279°
2026-04-13 20:08 -0.89316 131.27799 25 ft 10 kts 263°
2026-04-13 20:08 -0.89348 131.27817 27 ft 8 kts 93°
2026-04-13 20:08 -0.89350 131.27885 25 ft 12 kts 91°
2026-04-13 20:09 -0.89353 131.27979 24 ft 16 kts 91°
2026-04-13 20:09 -0.89357 131.28102 25 ft 19 kts 93°
2026-04-13 20:09 -0.89366 131.28239 30 ft 21 kts 94°
2026-04-13 20:09 -0.89376 131.28397 29 ft 24 kts 94°
2026-04-13 20:10 -0.89388 131.28567 25 ft 24 kts 94°
2026-04-13 20:10 -0.89398 131.28728 24 ft 23 kts 93°
2026-04-13 20:10 -0.89407 131.28861 24 ft 11 kts 94°
2026-04-13 20:10 -0.89363 131.28906 26 ft 11 kts
2026-04-13 20:11 -0.89284 131.28910 24 ft 12 kts
2026-04-13 20:11 -0.89220 131.28950 24 ft 12 kts 74°
2026-04-13 20:11 -0.89220 131.29038 24 ft 13 kts 92°
2026-04-13 20:11 -0.89197 131.29075 24 ft 5 kts 11°
2026-04-13 20:12 -0.89175 131.29077 26 ft 0 kts